EW2458 Weather Reports


time (UTC)temp
C
wind
direction
speed
KPH
gust
KPH
rain 1hr
cm
rain 24hr
cm
rain mn
cm
humidity
%
barometer
mb
20260906040036 23 120 0.0 4.8 0.00 0.00 0.00 92 1011.2
20260906034541 23 102 1.6 4.8 0.00 0.00 0.00 91 1011.4
20260906033036 23 139 0.0 1.6 0.00 0.00 0.00 91 1011.0
20260906031539 23 131 0.0 6.4 0.00 0.00 0.00 92 1010.9
20260906030039 24 120 0.0 3.2 0.00 0.00 0.00 91 1010.9
20260906024532 24 117 0.0 1.6 0.00 0.00 0.00 90 1010.8
20260906023033 25 122 3.2 6.4 0.00 0.00 0.00 89 1010.8
20260906021531 25 98 0.0 4.8 0.00 0.00 0.00 86 1010.6
20260906020032 26 96 0.0 3.2 0.00 0.00 0.00 82 1010.1
20260906014542 26 208 0.0 4.8 0.00 0.00 0.00 79 1009.9
20260906013030 27 128 1.6 8.0 0.00 0.00 0.00 78 1009.9
20260906011531 27 68 0.0 4.8 0.00 0.00 0.00 77 1010.2
20260906010054 26 349 0.0 4.8 0.00 0.00 0.00 80 1010.3
20260906004528 26 149 1.6 8.0 0.00 0.00 0.00 79 1010.0
20260906003027 27 106 1.6 4.8 0.00 0.00 0.00 77 1010.0
20260906001541 28 148 0.0 3.2 0.00 0.00 0.00 73 1009.8
20260906000027 28 43 0.0 0.0 0.00 0.00 0.00 70 1009.8
20260905234526 30 146 0.0 1.6 0.00 0.00 0.00 68 1009.8
20260905233025 30 152 1.6 4.8 0.00 0.00 0.00 66 1009.7
20260905231537 30 101 1.6 4.8 0.00 0.00 0.00 66 1009.6
20260905230025 30 82 1.6 8.0 0.00 0.00 0.00 65 1009.5
20260905224624 30 109 1.6 4.8 0.00 0.00 0.00 63 1009.5
20260905223034 30 114 0.0 11.3 0.00 0.00 0.00 65 1009.7
20260905221523 30 124 1.6 14.5 0.00 0.00 0.00 65 1010.0
20260905220027 30 107 11.3 19.3 0.00 0.00 0.00 63 1010.1
20260905214520 31 119 14.5 27.4 0.00 0.00 0.00 60 1010.1
20260905213021 34 119 17.7 32.2 0.00 0.00 0.00 55 1009.7
20260905211535 34 77 3.2 17.7 0.00 0.00 0.00 54 1009.6
20260905210020 35 124 8.0 20.9 0.00 0.00 0.00 52 1009.6
20260905204524 36 321 9.7 19.3 0.00 0.00 0.00 47 1009.3
20260905203029 36 248 3.2 9.7 0.00 0.00 0.00 48 1009.3
20260905201521 35 319 8.0 19.3 0.00 0.00 0.00 48 1009.6
20260905200011 35 304 9.7 16.1 0.00 0.00 0.00 49 1009.8
20260905194508 35 290 8.0 14.5 0.00 0.00 0.00 49 1010.1
20260905193008 35 30 8.0 16.1 0.00 0.00 0.00 51 1010.3
20260905191504 35 308 11.3 16.1 0.00 0.00 0.00 51 1010.7
20260905190002 35 276 6.4 16.1 0.00 0.00 0.00 50 1010.8
20260905184611 35 89 0.0 4.8 0.00 0.00 0.00 51 1010.9
20260905183112 35 359 6.4 14.5 0.00 0.00 0.00 52 1011.1
20260905181658 35 214 1.6 8.0 0.00 0.00 0.00 52 1011.3
20260905180057 35 53 3.2 19.3 0.00 0.00 0.00 53 1011.5
20260905174552 35 75 0.0 9.7 0.00 0.00 0.00 53 1011.7
20260905173050 34 352 9.7 14.5 0.00 0.00 0.00 56 1011.8
20260905171550 35 153 0.0 9.7 0.00 0.00 0.00 56 1012.0
20260905170050 34 58 0.0 4.8 0.00 0.00 0.00 60 1012.2
20260905164540 33 297 1.6 3.2 0.00 0.00 0.00 63 1012.4
20260905161533 31 290 1.6 8.0 0.00 0.00 0.00 70 1012.9
20260905160033 31 311 3.2 9.7 0.00 0.00 0.00 70 1012.9
20260905154532 31 39 1.6 6.4 0.00 0.00 0.00 68 1012.9
20260905153030 30 308 3.2 6.4 0.00 0.00 0.00 70 1013.0
20260905151535 30 280 0.0 4.8 0.00 0.00 0.00 72 1013.1
20260905150026 29 23 1.6 3.2 0.00 0.00 0.00 74 1013.1
20260905144530 29 138 0.0 0.0 0.00 0.00 0.00 77 1013.2
20260905143018 27 230 0.0 0.0 0.00 0.00 0.00 81 1013.3
20260905141515 27 124 0.0 0.0 0.00 0.00 0.00 82 1013.3
20260905140011 26 124 0.0 1.6 0.00 0.00 0.00 87 1013.4
20260905134507 25 31 0.0 1.6 0.00 0.00 0.00 89 1013.4
20260905133004 24 141 0.0 0.0 0.00 0.00 0.00 91 1013.5
20260905131620 23 141 0.0 1.6 0.00 0.00 0.00 93 1013.8
20260905130058 23 141 0.0 0.0 0.00 0.00 0.00 94 1013.8
20260905124556 22 141 0.0 0.0 0.00 0.00 0.00 96 1013.9
20260905123103 21 141 0.0 0.0 0.00 0.00 0.00 97 1013.7
20260905121554 21 141 0.0 0.0 0.00 0.00 0.00 97 1013.6
20260905120051 21 141 0.0 1.6 0.00 0.00 0.00 97 1013.4
20260905114550 20 141 0.0 1.6 0.00 0.00 0.00 97 1013.3
20260905113051 20 142 0.0 1.6 0.00 0.00 0.00 97 1013.1
20260905111553 20 142 0.0 0.0 0.00 0.00 0.00 97 1013.0
20260905110048 20 146 0.0 1.6 0.00 0.00 0.00 97 1012.8
20260905104559 20 146 0.0 1.6 0.00 0.00 0.00 97 1012.7
20260905103043 21 146 0.0 0.0 0.00 0.00 0.00 97 1012.6
20260905101542 21 146 0.0 0.0 0.00 0.00 0.00 97 1012.6
20260905100044 21 146 0.0 0.0 0.00 0.00 0.00 97 1012.4
20260905094542 21 146 0.0 1.6 0.00 0.00 0.00 97 1012.3
20260905093040 21 147 0.0 0.0 0.00 0.00 0.00 96 1012.0
20260905091638 21 147 0.0 1.6 0.00 0.00 0.00 97 1012.1
20260905090054 21 131 0.0 0.0 0.00 0.00 0.00 96 1012.1
20260905084536 21 131 0.0 0.0 0.00 0.00 0.00 96 1012.1
20260905083035 21 131 0.0 0.0 0.00 0.00 0.00 96 1012.1
20260905081533 21 131 0.0 0.0 0.00 0.00 0.00 96 1012.2
20260905080032 21 125 0.0 0.0 0.00 0.00 0.00 96 1012.3
20260905074531 21 125 0.0 1.6 0.00 0.00 0.00 96 1012.4
20260905073032 21 124 0.0 0.0 0.00 0.00 0.00 96 1012.3
20260905071528 22 125 0.0 3.2 0.00 0.00 0.00 96 1012.3
20260905070027 21 122 0.0 0.0 0.00 0.00 0.00 95 1012.4
20260905064526 22 122 0.0 3.2 0.00 0.00 0.00 95 1012.4
20260905063025 22 124 0.0 0.0 0.00 0.00 0.00 95 1012.5
20260905061531 22 124 0.0 1.6 0.00 0.00 0.00 95 1012.5
20260905060022 22 127 0.0 1.6 0.00 0.00 0.00 95 1012.4
20260905054529 22 127 0.0 1.6 0.00 0.00 0.00 95 1012.5
20260905053021 22 127 0.0 1.6 0.00 0.00 0.00 94 1012.6
20260905051520 23 129 0.0 0.0 0.00 0.00 0.00 94 1012.5
20260905050014 23 129 0.0 1.6 0.00 0.00 0.00 94 1012.7
20260905044514 23 129 0.0 1.6 0.00 0.00 0.00 94 1012.7
20260905043013 23 119 0.0 1.6 0.00 0.00 0.00 93 1012.7
20260905041513 23 113 0.0 0.0 0.00 0.00 0.00 92 1012.7